Location: Antioch Baptist Church
(32.6696°N, 85.7327°W)
Time: 12:21:22
(UTC+00:00)

CZ-3B R/B - Pass Details

Date: 14 July 2020
Orbit: 159 x 7653 km, 25.7° (Epoch: 09 August)

Event Time Altitude Azimuth Distance (km) Brightness Sun altitude
Rises 06:53:46 0° 238° (WSW) 11,557 7.9 -33.6°
Enters shadow 06:59:52 - 236° (WSW) 10,449 7.6 -33.2°
Exits shadow 07:30:30 43° 180° (S) 3,111 4.9 -30.6°
Maximum altitude 07:31:14 44° 173° (S) 2,975 4.8 -30.5°
Drops below altitude 10° 07:39:11 10° 104° (ESE) 3,129 5.6 -29.7°
